This is the latest recevied weather packets stored in our database for station/object KF6GPE. If no packets are shown the sender has not sent any weather packets the latest 10 day(s).
| Time | Temp. | Humidity | Pressure | Rain* | Wind** | Luminosity | Snow |
|---|---|---|---|---|---|---|---|
| 1777444203 | 10° C | 92% | 992.2 hPa | 0 mm | - | 1000 W/m² | - |
| 1777443604 | 10° C | 93% | 992.2 hPa | 0 mm | - | 1000 W/m² | - |
| 1777443003 | 10° C | 92% | 992.2 hPa | 0 mm | - | 1000 W/m² | - |
| 1777442403 | 10° C | 93% | 992.2 hPa | 0 mm | - | 1000 W/m² | - |
| 1777441803 | 10° C | 92% | 992.2 hPa | 0 mm | - | 1000 W/m² | - |
| 1777441203 | 10.56° C | 92% | 992.4 hPa | 0 mm | - | 1000 W/m² | - |
| 1777440603 | 10.56° C | 92% | 992.5 hPa | 0 mm | - | 1000 W/m² | - |
| 1777440003 | 10.56° C | 92% | 992.6 hPa | 0 mm | - | 1000 W/m² | - |
| 1777439403 | 10.56° C | 91% | 992.6 hPa | 0 mm | - | 1000 W/m² | - |
| 1777438805 | 10.56° C | 91% | 992.5 hPa | 0 mm | - | 1000 W/m² | - |
| 1777437603 | 11.11° C | 89% | 992.5 hPa | 0 mm | - | 1000 W/m² | - |
| 1777437003 | 11.11° C | 89% | 992.5 hPa | 0 mm | - | 1000 W/m² | - |
| 1777436403 | 11.11° C | 88% | 992.4 hPa | 0 mm | - | 1000 W/m² | - |
| 1777435803 | 11.67° C | 87% | 992.2 hPa | 0 mm | - | 1000 W/m² | - |
| 1777434603 | 11.67° C | 86% | 992 hPa | 0 mm | - | 1000 W/m² | - |
| 1777434003 | 12.22° C | 86% | 991.9 hPa | 0 mm | - | 1000 W/m² | - |
| 1777433405 | 12.22° C | 85% | 991.8 hPa | 0 mm | - | 1000 W/m² | - |
| 1777432803 | 12.78° C | 83% | 991.6 hPa | 0 mm | - | 1000 W/m² | - |
| 1777432203 | 12.78° C | 83% | 991.5 hPa | 0 mm | - | 1000 W/m² | - |
| 1777431604 | 13.33° C | 82% | 991.4 hPa | 0 mm | - | 1000 W/m² | - |
| 1777431003 | 13.33° C | 81% | 991.3 hPa | 0 mm | - | 1000 W/m² | - |
| 1777430402 | 13.89° C | 80% | 991.2 hPa | 0 mm | - | 1000 W/m² | - |
| 1777429803 | 13.89° C | 79% | 991.2 hPa | 0 mm | - | 1000 W/m² | - |
| 1777429203 | 14.44° C | 76% | 991.1 hPa | 0 mm | - | 1000 W/m² | - |
| 1777427403 | 15° C | 71% | 991 hPa | 0 mm | - | 1001 W/m² | - |
* Rain latest hour (hover to see other rain measurements)
** Current wind speed in m/s (hover to see current wind gust speed)